User: anonymous   Login
Location: Newark
(35.2672°N, 80.7344°W)
Time: 10:27:30
(UTC+00:00)
Language:

Transit 2A - Orbit

View from above orbital plane
View from above orbital plane
View from above satellite
View from above satellite

Ground track
Ground track

The orbit data is extracted from the following two-line orbital elements,

1    45U 60007A   20024.13477993 -.00000057  00000-0  12485-4 0  9990
2    45  66.6948  43.8692 0249089  60.5671 302.0038 14.33663200101870
Epoch (UTC): 24 January 2020 03:14:04
Eccentricity: 0.0249089
inclination: 66.6948°
perigee height: 601 km
apogee height: 958 km
right ascension of ascending node: 43.8692°
argument of perigee: 60.5671°
revolutions per day: 14.33663200
mean anomaly at epoch: 302.0038°
orbit number at epoch: 10187

The dashed part of the orbit path shows where the satellite is in the earth's shadow,  

DLR